TimeCST,TemperatureF,Dew PointF,Humidity,Sea Level PressureIn,VisibilityMPH,Wind Direction,Wind SpeedMPH,Gust SpeedMPH,PrecipitationIn,Events,Conditions,WindDirDegrees,DateUTC
12:53 AM,60.1,51.1,72,30.15,10.0,North,3.5,-,N/A,,Clear,10,2012-11-21 06:53:00
1:53 AM,59.0,52.0,78,30.15,8.0,Calm,Calm,-,N/A,,Clear,0,2012-11-21 07:53:00
2:53 AM,57.0,51.1,81,30.15,10.0,Calm,Calm,-,N/A,,Clear,0,2012-11-21 08:53:00
3:53 AM,57.9,54.0,87,30.15,10.0,Calm,Calm,-,N/A,,Clear,0,2012-11-21 09:53:00
4:53 AM,59.0,55.0,87,30.16,10.0,West,3.5,-,N/A,,Clear,280,2012-11-21 10:53:00
5:53 AM,59.0,53.1,81,30.17,10.0,NNW,4.6,-,N/A,,Clear,330,2012-11-21 11:53:00
6:53 AM,57.9,53.1,84,30.19,10.0,NNW,3.5,-,N/A,,Clear,340,2012-11-21 12:53:00
7:53 AM,60.1,55.9,86,30.21,10.0,WNW,4.6,-,N/A,,Clear,290,2012-11-21 13:53:00
8:53 AM,61.0,53.1,75,30.22,10.0,WNW,5.8,-,N/A,,Clear,300,2012-11-21 14:53:00
9:53 AM,62.1,53.1,72,30.22,10.0,WNW,4.6,-,N/A,,Clear,290,2012-11-21 15:53:00
10:53 AM,62.1,55.9,80,30.21,10.0,West,5.8,-,N/A,,Clear,270,2012-11-21 16:53:00
11:53 AM,64.0,52.0,65,30.18,10.0,West,4.6,-,N/A,,Clear,280,2012-11-21 17:53:00
12:53 PM,64.9,53.1,65,30.16,10.0,West,5.8,-,N/A,,Clear,280,2012-11-21 18:53:00
1:53 PM,66.0,55.0,68,30.13,10.0,West,4.6,-,N/A,,Clear,260,2012-11-21 19:53:00
2:53 PM,68.0,57.0,68,30.13,10.0,West,6.9,-,N/A,,Clear,260,2012-11-21 20:53:00
3:53 PM,68.0,55.9,65,30.13,10.0,West,3.5,-,N/A,,Clear,260,2012-11-21 21:53:00
4:53 PM,66.0,57.0,73,30.13,10.0,West,5.8,-,N/A,,Clear,280,2012-11-21 22:53:00
5:53 PM,64.9,55.9,73,30.14,10.0,West,5.8,-,N/A,,Clear,260,2012-11-21 23:53:00
6:53 PM,64.9,55.9,73,30.15,9.0,West,5.8,-,N/A,,Clear,270,2012-11-22 00:53:00
7:53 PM,64.0,57.0,78,30.17,10.0,NW,5.8,-,N/A,,Clear,320,2012-11-22 01:53:00
8:53 PM,64.0,55.0,73,30.18,10.0,NNW,4.6,-,N/A,,Clear,340,2012-11-22 02:53:00
9:53 PM,62.1,54.0,75,30.18,10.0,Calm,Calm,-,N/A,,Clear,0,2012-11-22 03:53:00
10:53 PM,61.0,53.1,75,30.18,10.0,Calm,Calm,-,N/A,,Clear,0,2012-11-22 04:53:00
11:53 PM,60.1,53.1,78,30.18,10.0,Calm,Calm,-,N/A,,Clear,0,2012-11-22 05:53:00